When you browse on this site, cookies collect data to enhance your experience and personalize the content and advertising you see.
Visit our Privacy Policy to learn more. By continuing to use the site, you agree to this use of cookies and data.
  • In Sweden
  • List of Countries
  • For 7 days
  • Water Temperature
  • Satellite Maps
  • Weather Map
  • Weather Widgets
  • user-avatar
    Login

    Hourly Weather Thornton

    Today, 21 May, Tuesday

    Time Temperature Precipitation Wind Pressure Humidity
    00:00 +2°C° 1.9 mm 5 mps 616 mmHg 91%
    01:00 +2°C° 1.9 mm 6 mps 615 mmHg 91%
    02:00 +2°C° 1.9 mm 7 mps 615 mmHg 91%
    03:00 +2°C° 1.6 mm 6 mps 615 mmHg 91%
    04:00 +2°C° 1.6 mm 6 mps 614 mmHg 90%
    05:00 +2°C° 1.6 mm 6 mps 614 mmHg 90%
    06:00 +2°C° 1.5 mm 6 mps 614 mmHg 89%
    07:00 +3°C° 1.5 mm 6 mps 614 mmHg 88%
    08:00 +3°C° 1.5 mm 7 mps 614 mmHg 87%
    09:00 +4°C° 1 mm 7 mps 614 mmHg 84%
    10:00 +5°C° 1 mm 8 mps 614 mmHg 81%
    11:00 +6°C° 1 mm 8 mps 615 mmHg 78%
    12:00 +6°C° 0.5 mm 8 mps 615 mmHg 78%
    13:00 +5°C° 0.5 mm 8 mps 615 mmHg 77%
    14:00 +5°C° 0.5 mm 8 mps 615 mmHg 77%
    15:00 +5°C° 0.3 mm 7 mps 615 mmHg 77%
    16:00 +5°C° 0.3 mm 7 mps 615 mmHg 77%
    17:00 +5°C° 0.3 mm 6 mps 615 mmHg 78%
    18:00 +5°C° 0.1 mm 5 mps 615 mmHg 80%
    19:00 +4°C° 0.1 mm 3 mps 615 mmHg 82%
    20:00 +4°C° 0.1 mm 2 mps 615 mmHg 84%
    21:00 +4°C° 0 mm 2 mps 615 mmHg 84%
    22:00 +3°C° 0 mm 2 mps 616 mmHg 84%
    23:00 +3°C° 0 mm 2 mps 616 mmHg 84%

    Tomorrow, 22 May, Wednesday

    Time Temperature Precipitation Wind Pressure Humidity
    00:00 +3°C° 0 mm 2 mps 616 mmHg 84%
    01:00 +2°C° 0 mm 2 mps 616 mmHg 84%
    02:00 +2°C° 0 mm 2 mps 616 mmHg 84%
    03:00 +2°C° 0 mm 2 mps 616 mmHg 82%
    04:00 +2°C° 0 mm 2 mps 617 mmHg 80%
    05:00 +1°C° 0 mm 2 mps 617 mmHg 78%
    06:00 +4°C° 0 mm 2 mps 617 mmHg 72%
    07:00 +6°C° 0 mm 2 mps 618 mmHg 65%
    08:00 +8°C° 0 mm 3 mps 619 mmHg 58%
    09:00 +9°C° 0 mm 3 mps 620 mmHg 57%
    10:00 +10°C° 0 mm 3 mps 620 mmHg 55%
    11:00 +12°C° 0 mm 4 mps 621 mmHg 53%
    12:00 +12°C° 0.1 mm 3 mps 621 mmHg 52%
    13:00 +13°C° 0.1 mm 3 mps 622 mmHg 51%
    14:00 +15°C° 0.1 mm 2 mps 622 mmHg 49%
    15:00 +13°C° 0.2 mm 3 mps 622 mmHg 53%
    16:00 +13°C° 0.2 mm 4 mps 622 mmHg 57%
    17:00 +12°C° 0.2 mm 5 mps 622 mmHg 61%
    18:00 +10°C° 0.1 mm 5 mps 623 mmHg 65%
    19:00 +8°C° 0.1 mm 4 mps 623 mmHg 70%
    20:00 +7°C° 0.1 mm 4 mps 623 mmHg 75%
    21:00 +7°C° 0.4 mm 3 mps 623 mmHg 77%
    22:00 +7°C° 0.4 mm 3 mps 624 mmHg 79%
    23:00 +6°C° 0.4 mm 2 mps 624 mmHg 81%

    Day after tomorrow, 23 May, Thursday

    Time Temperature Precipitation Wind Pressure Humidity
    00:00 +6°C° 0.1 mm 2 mps 624 mmHg 82%
    01:00 +6°C° 0.1 mm 2 mps 624 mmHg 82%
    02:00 +5°C° 0.1 mm 2 mps 624 mmHg 82%
    03:00 +5°C° 0 mm 2 mps 624 mmHg 83%
    04:00 +5°C° 0 mm 2 mps 624 mmHg 83%
    05:00 +6°C° 0 mm 1 mps 624 mmHg 84%
    06:00 +6°C° 0 mm 1 mps 623 mmHg 82%
    07:00 +7°C° 0 mm 1 mps 623 mmHg 81%
    08:00 +7°C° 0 mm 1 mps 623 mmHg 79%
    09:00 +7°C° 0 mm 2 mps 623 mmHg 77%
    10:00 +8°C° 0 mm 2 mps 622 mmHg 75%
    11:00 +9°C° 0 mm 2 mps 622 mmHg 73%
    12:00 +10°C° 0 mm 2 mps 622 mmHg 70%
    13:00 +12°C° 0 mm 1 mps 622 mmHg 68%
    14:00 +13°C° 0 mm 1 mps 622 mmHg 66%
    15:00 +13°C° 0.2 mm 3 mps 623 mmHg 55%
    16:00 +15°C° 0.2 mm 5 mps 624 mmHg 43%
    17:00 +17°C° 0.2 mm 6 mps 625 mmHg 32%
    18:00 +14°C° 0 mm 5 mps 624 mmHg 41%
    19:00 +11°C° 0 mm 3 mps 624 mmHg 51%
    20:00 +9°C° 0 mm 1 mps 624 mmHg 60%
    21:00 +8°C° 0 mm 2 mps 625 mmHg 58%
    22:00 +8°C° 0 mm 2 mps 625 mmHg 56%
    23:00 +7°C° 0 mm 3 mps 625 mmHg 54%

    24 May, Friday

    Time Temperature Precipitation Wind Pressure Humidity
    00:00 +7°C° 0 mm 3 mps 625 mmHg 53%
    01:00 +7°C° 0 mm 3 mps 625 mmHg 52%
    02:00 +7°C° 0 mm 3 mps 625 mmHg 51%
    03:00 +7°C° 0 mm 3 mps 625 mmHg 52%
    04:00 +7°C° 0 mm 3 mps 625 mmHg 53%
    05:00 +5°C° 0 mm 3 mps 625 mmHg 54%
    06:00 +9°C° 0 mm 3 mps 626 mmHg 48%
    07:00 +12°C° 0 mm 3 mps 627 mmHg 42%
    08:00 +14°C° 0 mm 3 mps 628 mmHg 36%
    09:00 +17°C° 0 mm 2 mps 628 mmHg 32%
    10:00 +18°C° 0 mm 2 mps 629 mmHg 28%
    11:00 +20°C° 0 mm 2 mps 629 mmHg 24%
    12:00 +21°C° 0 mm 2 mps 629 mmHg 23%
    13:00 +21°C° 0 mm 3 mps 629 mmHg 21%
    14:00 +22°C° 0 mm 4 mps 629 mmHg 20%
    15:00 +22°C° 0 mm 3 mps 629 mmHg 20%
    16:00 +22°C° 0 mm 3 mps 629 mmHg 21%
    17:00 +22°C° 0 mm 3 mps 629 mmHg 22%
    18:00 +19°C° 0 mm 2 mps 629 mmHg 29%
    19:00 +17°C° 0 mm 2 mps 628 mmHg 36%
    20:00 +14°C° 0 mm 2 mps 628 mmHg 43%
    21:00 +13°C° 0 mm 2 mps 628 mmHg 46%
    22:00 +12°C° 0 mm 2 mps 628 mmHg 49%
    23:00 +11°C° 0 mm 1 mps 628 mmHg 52%

    25 May, Saturday

    Time Temperature Precipitation Wind Pressure Humidity
    00:00 +10°C° 0 mm 2 mps 628 mmHg 51%
    01:00 +9°C° 0 mm 2 mps 627 mmHg 51%
    02:00 +9°C° 0 mm 2 mps 627 mmHg 51%
    03:00 +8°C° 0 mm 2 mps 627 mmHg 51%
    04:00 +8°C° 0 mm 2 mps 627 mmHg 51%
    05:00 +8°C° 0 mm 2 mps 627 mmHg 51%
    06:00 +12°C° 0 mm 2 mps 628 mmHg 45%
    07:00 +14°C° 0 mm 1 mps 628 mmHg 39%
    08:00 +18°C° 0 mm 1 mps 629 mmHg 33%
    09:00 +19°C° 0 mm 2 mps 629 mmHg 30%
    10:00 +21°C° 0 mm 2 mps 630 mmHg 26%
    11:00 +24°C° 0 mm 3 mps 630 mmHg 23%
    12:00 +25°C° 0 mm 3 mps 629 mmHg 21%
    13:00 +26°C° 0 mm 3 mps 629 mmHg 18%
    14:00 +27°C° 0 mm 3 mps 629 mmHg 16%
    15:00 +26°C° 0 mm 3 mps 628 mmHg 19%
    16:00 +26°C° 0 mm 3 mps 628 mmHg 23%
    17:00 +25°C° 0 mm 2 mps 627 mmHg 26%
    18:00 +21°C° 0.4 mm 3 mps 627 mmHg 34%
    19:00 +19°C° 0.4 mm 4 mps 627 mmHg 42%
    20:00 +15°C° 0.4 mm 4 mps 626 mmHg 50%
    21:00 +14°C° 0 mm 4 mps 626 mmHg 51%
    22:00 +14°C° 0 mm 3 mps 626 mmHg 52%
    23:00 +13°C° 0 mm 3 mps 627 mmHg 53%

    26 May, Sunday

    Time Temperature Precipitation Wind Pressure Humidity
    00:00 +14°C° 0 mm 2 mps 626 mmHg 53%
    01:00 +13°C° 0 mm 2 mps 626 mmHg 54%
    02:00 +12°C° 0 mm 2 mps 626 mmHg 54%
    03:00 +12°C° 0 mm 2 mps 626 mmHg 55%
    04:00 +10°C° 0 mm 2 mps 626 mmHg 57%
    05:00 +10°C° 0 mm 1 mps 626 mmHg 58%
    06:00 +13°C° 0 mm 1 mps 626 mmHg 53%
    07:00 +15°C° 0 mm 1 mps 627 mmHg 48%
    08:00 +17°C° 0 mm 0 mps 627 mmHg 43%
    09:00 +20°C° 0 mm 1 mps 627 mmHg 37%
    10:00 +21°C° 0 mm 2 mps 628 mmHg 31%
    11:00 +24°C° 0 mm 2 mps 628 mmHg 24%
    12:00 +25°C° 0 mm 3 mps 627 mmHg 22%
    13:00 +26°C° 0 mm 3 mps 627 mmHg 19%
    14:00 +28°C° 0 mm 3 mps 627 mmHg 16%
    15:00 +27°C° 0 mm 3 mps 626 mmHg 18%
    16:00 +27°C° 0 mm 3 mps 626 mmHg 21%
    17:00 +26°C° 0 mm 3 mps 625 mmHg 23%
    18:00 +24°C° 0 mm 3 mps 624 mmHg 29%
    19:00 +20°C° 0 mm 3 mps 624 mmHg 35%
    20:00 +18°C° 0 mm 3 mps 623 mmHg 42%
    21:00 +17°C° 0 mm 3 mps 623 mmHg 45%
    22:00 +15°C° 0 mm 2 mps 623 mmHg 48%
    23:00 +14°C° 0 mm 2 mps 623 mmHg 52%
    Show more